[[{"header":{"parameterUnit":"m.s-1","parameterCategory":1,"la1":30.2991,"la2":30.254,"lo1":-89.0895,"lo2":-89.0444,"dy":0.0017,"dx":0.0017,"nx":28,"ny":28,"refTime":"2024-04-13T21:00:00:Z","depth":0,"parameterNumber":2,"parameterNumberName":"U-component_of_WINDS"},"data":[0,0,0,0,0,0,0,0,0,0,0,0,0,0,0,0,0,0,0,0,0,0,0,0,0,0,0,0,0,0,0,0,0,0,0,0,0,0,0,0,0,0,0,0,0,0,0,0,0,0,0,0,0,0,0,0,0,0,-2.4972,-2.4971,0,-2.4927,-2.4926,-2.4926,-2.4851,-2.4849,-2.4848,-2.4847,-2.48,-2.48,-2.48,0,0,0,0,0,0,0,0,0,0,0,0,0,-2.4992,-2.4992,-2.4972,-2.4971,-2.4971,-2.4927,-2.4926,-2.4926,-2.4851,-2.4849,-2.4848,-2.4846,-2.48,-2.48,-2.48,0,0,0,0,0,0,0,0,0,0,0,0,0,-2.4969,-2.4992,-2.4972,-2.4928,-2.4924,-2.4927,-2.4926,-2.4926,-2.4851,-2.4849,-2.4847,-2.4845,-2.48,-2.48,-2.48,-2.4843,0,0,-2.4801,-2.4801,0,0,0,0,0,0,0,0,-2.497,-2.4968,-2.4935,-2.4931,-2.4926,-2.4892,-2.4916,-2.4898,-2.4852,-2.4879,-2.4847,-2.4844,-2.4833,-2.483,-2.4826,-2.4841,-2.4839,-2.4801,-2.4801,-2.4801,-2.4801,0,0,0,0,0,0,0,-2.4972,-2.497,-2.4954,-2.4935,-2.4929,-2.4911,-2.4905,-2.4913,-2.4868,-2.4876,-2.4871,-2.4867,-2.483,-2.4826,-2.4824,-2.4838,-2.4801,-2.4801,-2.4801,-2.4801,-2.4884,-2.4886,0,0,0,0,0,0,-2.498,-2.4971,-2.4955,-2.4953,-2.4943,-2.4912,-2.4906,-2.4905,-2.4868,-2.486,-2.4868,-2.4863,-2.4827,-2.4824,-2.4823,-2.4869,-2.4801,-2.4801,-2.4801,-2.4882,-2.4885,-2.4887,0,0,0,0,0,0,-2.4981,-2.4979,-2.4957,-2.496,-2.4956,-2.4914,-2.4914,-2.4906,-2.4902,-2.4862,-2.4853,-2.4873,-2.4825,-2.4822,-2.4838,-2.4866,-2.4801,-2.4801,-2.488,-2.4883,-2.4886,-2.4962,0,0,0,0,0,0,-2.4982,-2.498,-2.4996,-2.4961,-2.4956,-2.4974,-2.4916,-2.4906,-2.4902,-2.4895,-2.4864,-2.4856,-2.4823,-2.4839,-2.4838,-2.4865,-2.4801,-2.4877,-2.4881,-2.4885,-2.4957,-2.4968,-2.4977,0,0,0,0,0,-2.4983,-2.5019,-2.4997,-2.4995,-2.4975,-2.4976,-2.4973,-2.4934,-2.4905,-2.492,-2.4894,-2.4857,-2.4864,-2.4841,-2.484,-2.4867,-2.4875,-2.488,-2.4885,-2.4953,-2.4966,-2.4977,0,0,0,0,0,0,-2.5057,-2.5013,-2.4989,-2.5015,-2.5,-2.4963,-2.4981,-2.4949,-2.4942,-2.4935,-2.4888,-2.4881,-2.4903,-2.4887,-2.4862,-2.4906,-2.4863,-2.4868,-2.4915,-2.4927,-2.4937,-2.494,-2.4801,0,0,0,0,0,-2.5077,-2.5081,-2.5043,-2.507,-2.5063,-2.5024,-2.5023,-2.4994,-2.4976,-2.4969,-2.4945,-2.4929,-2.4927,-2.4926,-2.4923,-2.4955,-2.4946,-2.4973,-2.4983,-2.4992,-2.4996,-2.5011,-2.5022,-2.4903,-2.4903,-2.4903,0,0,-2.5117,-2.5094,-2.5099,-2.5084,-2.5069,-2.5074,-2.5019,-2.5027,-2.503,-2.4971,-2.4984,-2.4965,-2.4944,-2.4968,-2.4978,-2.4955,-2.5027,-2.4998,-2.5005,-2.5004,-2.5017,-2.5028,-2.5038,-2.4907,-2.4906,-2.4905,0,0,-2.5192,-2.5176,-2.5196,-2.5182,-2.516,-2.5134,-2.5139,-2.5107,-2.5093,-2.5105,-2.5061,-2.5064,-2.5062,-2.5049,-2.5042,-2.5113,-2.5079,-2.5114,-2.5164,-2.518,-2.5189,-2.5197,-2.5221,-2.5231,-2.5118,-2.5119,-2.5119,0,-2.5245,-2.5251,-2.521,-2.5221,-2.5215,-2.5163,-2.5183,-2.5171,-2.5149,-2.5146,-2.5122,-2.5118,-2.51,-2.512,-2.5138,-2.5134,-2.5138,-2.5116,-2.5191,-2.5199,-2.5205,-2.5228,-2.5237,-2.5123,-2.5122,-2.5122,-2.5121,0,-2.5316,-2.5322,-2.5341,-2.5321,-2.5317,-2.5333,-2.5294,-2.5296,-2.5268,-2.5245,-2.5258,-2.5235,-2.5225,-2.5228,-2.5201,-2.5244,-2.5231,-2.52,-2.5156,-2.5222,-2.5242,-2.525,-2.5129,-2.5127,-2.5126,-2.5125,0,0,-2.5436,-2.5394,-2.5402,-2.5392,-2.5364,-2.5367,-2.538,-2.5371,-2.5373,-2.536,-2.5369,-2.5369,-2.5339,-2.5332,-2.5303,-2.5317,-2.5373,-2.5283,-2.5282,-2.5299,-2.5418,-2.544,-2.5451,-2.5351,-2.5353,-2.5354,-2.5419,0,-2.5505,-2.5524,-2.5489,-2.5516,-2.552,-2.5471,-2.5482,-2.5466,-2.5445,-2.5445,-2.5421,-2.5421,-2.5383,-2.5378,-2.5389,-2.5364,-2.5396,-2.5359,-2.5358,-2.5358,-2.5363,-2.5461,-2.5485,-2.5548,-2.5427,-2.5428,-2.5429,0,-2.5587,-2.5578,-2.5607,-2.5577,-2.5577,-2.5588,-2.5576,-2.5577,-2.5558,-2.5541,-2.5533,-2.55,-2.551,-2.5469,-2.5482,-2.5458,-2.5455,-2.5443,-2.5445,-2.5441,-2.5396,-2.5459,-2.5567,-2.5576,-2.5441,-2.544,-2.5439,0,-2.567,-2.5665,-2.5681,-2.5675,-2.5641,-2.5649,-2.5636,-2.5615,-2.5611,-2.5601,-2.5599,-2.559,-2.5585,-2.5579,-2.5544,-2.5518,-2.5561,-2.5518,-2.5546,-2.5547,-2.5556,-2.5556,-2.5663,-2.5558,-2.5558,-2.5558,-2.5557,0,-2.5749,-2.5768,-2.5718,-2.5728,-2.5748,-2.5707,-2.5727,-2.5708,-2.569,-2.5695,-2.5653,-2.5658,-2.5612,-2.5613,-2.5585,-2.5599,-2.5598,-2.5584,-2.5576,-2.5587,-2.5588,-2.5583,-2.5577,-2.556,-2.556,-2.5559,-2.5559,0,-2.5844,-2.5812,-2.5826,-2.5793,-2.5785,-2.5801,-2.5772,-2.578,-2.5756,-2.5763,-2.5762,-2.5725,-2.5723,-2.5688,-2.5679,-2.566,-2.5685,-2.567,-2.5691,-2.5686,-2.5716,-2.5713,-2.5822,-2.5833,-2.5723,-2.5724,-2.5725,0,-2.5896,-2.591,-2.5878,-2.5879,-2.5867,-2.5868,-2.5865,-2.5825,-2.5823,-2.5803,-2.5813,-2.5808,-2.5801,-2.5801,-2.5772,-2.5765,-2.5748,-2.5787,-2.5747,-2.5757,-2.5747,-2.5746,-2.5746,-2.5795,-2.5796,-2.5797,-2.5798,0,-2.5992,-2.5975,-2.5971,-2.5963,-2.596,-2.5951,-2.5939,-2.5942,-2.5898,-2.5898,-2.5896,-2.5891,-2.5882,-2.5877,-2.5865,-2.585,-2.5817,-2.5812,-2.5817,-2.5827,-2.5839,-2.5831,-2.5713,-2.5809,-2.5808,-2.5807,-2.5806,-2.5806,-2.6065,-2.6075,-2.6054,-2.6052,-2.6039,-2.6029,-2.6034,-2.6011,-2.6009,-2.5998,-2.5975,-2.5977,-2.5957,-2.5937,-2.5925,-2.5925,-2.5905,-2.5914,-2.5916,-2.5918,-2.5924,-2.5841,-2.5923,-2.5922,-2.5922,-2.5922,-2.5922,0,-2.6157,-2.6142,-2.614,-2.6125,-2.6123,-2.6093,-2.6079,-2.6079,-2.6081,-2.6065,-2.606,-2.6057,-2.6052,-2.6024,-2.6016,-2.6021,-2.6006,-2.602,-2.6018,-2.6015,-2.5943,-2.5938,-2.6033,-2.6033,-2.6033,-2.6033,-2.6033,-2.6033,-2.6204,-2.6218,-2.6199,-2.6206,-2.619,-2.6192,-2.6186,-2.6176,-2.6164,-2.6163,-2.6158,-2.614,-2.6119,-2.6109,-2.6103,-2.6095,-2.6093,-2.6112,-2.6099,-2.6031,-2.602,-2.601,-2.6005,-2.6113,-2.6113,-2.6171,-2.6171,-2.6172]},{"header":{"parameterUnit":"m.s-1","parameterCategory":1,"la1":30.2991,"la2":30.254,"lo1":-89.0895,"lo2":-89.0444,"dy":0.0017,"dx":0.0017,"nx":28,"ny":28,"refTime":"2024-04-13T21:00:00:Z","depth":0,"parameterNumber":3,"parameterNumberName":"V-component_of_WINDS"},"data":[0,0,0,0,0,0,0,0,0,0,0,0,0,0,0,0,0,0,0,0,0,0,0,0,0,0,0,0,0,0,0,0,0,0,0,0,0,0,0,0,0,0,0,0,0,0,0,0,0,0,0,0,0,0,0,0,0,0,3.3865,3.3866,0,3.3898,3.3898,3.3898,3.3904,3.3904,3.3904,3.3904,3.3937,3.3938,3.3939,0,0,0,0,0,0,0,0,0,0,0,0,0,3.3812,3.3813,3.3865,3.3866,3.3866,3.3897,3.3898,3.3898,3.3905,3.3904,3.3904,3.3904,3.3937,3.3938,3.3939,0,0,0,0,0,0,0,0,0,0,0,0,0,3.3839,3.3813,3.3865,3.3873,3.3874,3.3897,3.3898,3.3898,3.3905,3.3904,3.3904,3.3903,3.3936,3.3938,3.394,3.3958,0,0,3.3945,3.3946,0,0,0,0,0,0,0,0,3.3837,3.3841,3.3871,3.3873,3.3874,3.3897,3.3891,3.3918,3.3905,3.3893,3.3904,3.3903,3.3924,3.3927,3.3934,3.3959,3.3961,3.3945,3.3946,3.3947,3.3947,0,0,0,0,0,0,0,3.3835,3.3839,3.3878,3.3872,3.3873,3.3876,3.3879,3.3896,3.391,3.3894,3.3895,3.3898,3.3925,3.3932,3.3934,3.3961,3.3945,3.3946,3.3947,3.3948,3.4007,3.4007,0,0,0,0,0,0,3.3832,3.3838,3.3877,3.3879,3.3854,3.3877,3.3881,3.389,3.391,3.3913,3.3898,3.3898,3.3929,3.3932,3.3936,3.396,3.3947,3.3948,3.3949,3.4006,3.4007,3.4007,0,0,0,0,0,0,3.3831,3.3835,3.3876,3.3859,3.3864,3.3878,3.3888,3.389,3.3898,3.3913,3.3916,3.3903,3.3929,3.3933,3.3953,3.3961,3.3949,3.3951,3.4006,3.4006,3.4007,3.4008,0,0,0,0,0,0,3.3829,3.3835,3.3841,3.3859,3.3865,3.3892,3.3889,3.3891,3.3901,3.3901,3.3919,3.3921,3.3929,3.395,3.3955,3.3963,3.3952,3.4005,3.4006,3.4007,3.4007,3.4009,3.401,0,0,0,0,0,3.3827,3.3839,3.3841,3.3846,3.3873,3.3892,3.3896,3.3904,3.3901,3.3908,3.3919,3.3921,3.396,3.3952,3.3957,3.3967,3.4004,3.4006,3.4007,3.4007,3.4009,3.401,0,0,0,0,0,0,3.3822,3.3842,3.3844,3.3862,3.3876,3.3893,3.3902,3.3905,3.392,3.3919,3.3929,3.3933,3.3953,3.3962,3.3953,3.3987,3.3982,3.3984,3.398,3.3982,3.3983,3.3981,3.3953,0,0,0,0,0,3.3823,3.3836,3.3853,3.3868,3.3874,3.3887,3.3896,3.3901,3.3916,3.3921,3.3933,3.3947,3.3963,3.3973,3.3988,3.4009,3.4014,3.4018,3.4019,3.402,3.4022,3.4037,3.4039,3.4011,3.4011,3.4011,0,0,3.3825,3.3837,3.3845,3.3867,3.3878,3.3893,3.3892,3.3907,3.3918,3.3923,3.3943,3.3953,3.3969,3.399,3.4,3.3998,3.4031,3.4022,3.4023,3.4024,3.4038,3.4041,3.4043,3.4012,3.4012,3.4012,0,0,3.3836,3.3846,3.3861,3.3872,3.3889,3.3898,3.3902,3.392,3.3926,3.3946,3.3951,3.3966,3.3992,3.4004,3.4014,3.4034,3.4037,3.4038,3.4046,3.406,3.4062,3.4064,3.4073,3.4076,3.404,3.404,3.404,0,3.3836,3.3858,3.3867,3.3883,3.3894,3.39,3.3916,3.3927,3.3948,3.3955,3.3953,3.3988,3.3999,3.4025,3.403,3.4037,3.4043,3.4036,3.4061,3.4063,3.4065,3.4074,3.4077,3.404,3.404,3.404,3.404,0,3.3859,3.3874,3.3884,3.3905,3.3917,3.3932,3.3945,3.3956,3.3962,3.3971,3.3993,3.4008,3.4027,3.4033,3.4038,3.406,3.4059,3.4058,3.4054,3.4068,3.4076,3.4079,3.4041,3.4041,3.4041,3.4041,0,0,3.3866,3.3894,3.3897,3.3908,3.3929,3.3942,3.3959,3.3978,3.3988,3.4003,3.4019,3.4042,3.4043,3.4054,3.4061,3.4073,3.4091,3.4072,3.4072,3.4076,3.4119,3.412,3.4123,3.4093,3.4094,3.4094,3.4118,0,3.3881,3.3911,3.3921,3.3946,3.3962,3.397,3.3985,3.4,3.4011,3.4026,3.4038,3.4055,3.4054,3.4061,3.4073,3.4086,3.41,3.4084,3.4109,3.411,3.4106,3.4127,3.4128,3.415,3.4121,3.4122,3.4122,0,3.3901,3.3918,3.3945,3.3967,3.3974,3.3987,3.4007,3.4022,3.404,3.4047,3.4061,3.4068,3.4088,3.4082,3.4111,3.41,3.4111,3.412,3.4121,3.4124,3.4117,3.4133,3.4156,3.416,3.4127,3.4127,3.4126,0,3.3906,3.3935,3.3956,3.3965,3.399,3.3999,3.401,3.4028,3.404,3.4058,3.4067,3.4087,3.4098,3.4114,3.4127,3.4121,3.4155,3.415,3.4163,3.4163,3.417,3.4169,3.4197,3.4175,3.4175,3.4175,3.4175,0,3.3921,3.3938,3.3958,3.3971,3.3991,3.4004,3.4023,3.4035,3.4052,3.4068,3.4076,3.4091,3.4107,3.4125,3.4135,3.4159,3.4163,3.417,3.4173,3.417,3.417,3.4178,3.4177,3.4176,3.4176,3.4176,3.4175,0,3.3929,3.3943,3.3967,3.3989,3.3996,3.401,3.403,3.4044,3.4055,3.4076,3.4082,3.41,3.4122,3.4137,3.4164,3.4171,3.4198,3.4199,3.4191,3.4193,3.4206,3.4205,3.4241,3.4247,3.422,3.422,3.422,0,3.3938,3.3952,3.3977,3.3989,3.4,3.4018,3.4032,3.4045,3.4059,3.4083,3.4094,3.4117,3.4136,3.4171,3.4187,3.4209,3.4212,3.4224,3.4216,3.4214,3.4215,3.4214,3.4217,3.4225,3.4225,3.4225,3.4225,0,3.3954,3.3961,3.3979,3.4001,3.4017,3.4034,3.4052,3.4061,3.4079,3.4094,3.4117,3.4132,3.4161,3.4185,3.4209,3.4221,3.4227,3.4228,3.4233,3.423,3.4226,3.423,3.4196,3.4227,3.4227,3.4227,3.4227,3.4227,3.3964,3.3977,3.3998,3.4019,3.4034,3.4051,3.4066,3.4081,3.41,3.4125,3.4133,3.4157,3.4179,3.4212,3.4226,3.4246,3.4245,3.4251,3.4252,3.4254,3.4255,3.4222,3.425,3.425,3.425,3.425,3.425,0,3.3981,3.3995,3.4015,3.404,3.4058,3.4062,3.4083,3.4097,3.4119,3.4138,3.4157,3.4186,3.4209,3.4228,3.4253,3.4266,3.427,3.4272,3.4272,3.4275,3.4254,3.4248,3.4269,3.4269,3.4269,3.4269,3.4269,3.4269,3.3992,3.4016,3.4026,3.4058,3.4073,3.4097,3.4109,3.4126,3.4142,3.4173,3.4193,3.4206,3.4226,3.4253,3.4276,3.4281,3.429,3.4293,3.4299,3.4278,3.4276,3.4274,3.4269,3.4294,3.4294,3.4319,3.4319,3.4319]}]]